KUIPER-00173

Last updated on Mon Oct 20 2025 00:02:07 GMT+0000 (Coordinated Universal Time)

1 65786U 25217AA 25292.31059283 .00054233 00000+0 14798-2 0 9997 2 65786 51.8723 327.4604 0002800 125.2759 234.8490 15.36905001 3673
UTC large
Height (km)
Speed (km/s)
/
Latitude / Longitude
Inclination (degrees)
Orbital Period (minutes)
Azimuth
Elevation
Range (km)
Doppler Factor

Next 0 passes for location: London (51.5072 / 0.1276)

Sorry there are no passes over London.